Regional Weather Roundup
Issued by NWS

Home | Current Version | Previous Version | Text Only | Print | Product List | Glossary On
Versions: 1 2 3 4 5 6 7 8 9 10 11 12 13 14 15 16 17 18 19 20 21 22 23 24 25 26 27 28 29 30 31 32 33 34 35 36 37 38 39 40 41 42 43 44 45 46 47 48 49 50
000
ASUS43 KIND 031709
RWRIN

WEATHER ROUNDUP FOR INDIANA
NATIONAL WEATHER SERVICE INDIANAPOLIS IN
100 PM EDT SUN MAY 03 2015

NOTE: "FAIR" INDICATES FEW OR NO CLOUDS BELOW 12,000 FEET WITH NO
SIGNIFICANT WEATHER AND/OR OBSTRUCTIONS TO VISIBILITY.

* - STATION DOES NOT REPORT WEATHER SUCH AS PRECIPITATION OR FOG.

+ - STATION NOT QUALITY CONTROLLED BY THE NATIONAL WEATHER SERVICE.
    USE DATA WITH CAUTION...ESPECIALLY DEWPOINT AND RELATIVE
    HUMIDITY OBSERVATIONS.

INZ001>003-010>013-019-020-031800-
NORTHWEST INDIANA

CITY           SKY/WX    TMP DP  RH WIND       PRES   REMARKS
GARY /AIRPORT/ PTSUNNY   77 N/A N/A SW18      29.99
KNOX *+        MOSUNNY   77   3   6 SW18      30.01F
LA PORTE +     MOSUNNY   78  44  29 SW14G23   30.01F
MICHIGAN CITY+ CLOUDY    77  32  19 SW20G26   30.01S
MONTICELLO +   MOSUNNY   75  49  39 SW15      30.04S
VALPARAISO     MOSUNNY   78  43  28 SW20G26   30.02S

$$

LMZ046-743>745-031800-
SOUTHERN LAKE MICHIGAN

STATION/POSITION TIME  TEMP    WIND        PRES    WAVE
                       AIR SEA DIR/SP/G            HT
                 (UTC) (F)     (DEG/KT/KT) (MB)    (FT)
BURNS HARBOR     1700   73     210/ 14/ 22 1016.3S
MICHIGAN CITY    1700   73     180/ 17/ 20   N/A
5NW MICH CITY    1700   63 50  230/ 10/ 12   N/A     1

$$

INZ004-005-014>016-021>024-031800-
NORTH CENTRAL INDIANA

CITY           SKY/WX    TMP DP  RH WIND       PRES   REMARKS
ELKHART        MOSUNNY   75  37  25 SW8G18    30.03S
GOSHEN         SUNNY     75  45  34 S17       30.04S
LOGANSPORT +   SUNNY     73  37  27 SW9G23    30.06F
PERU/GRISSOM   SUNNY     74  51  44 SW15      30.06S
ROCHESTER +    SUNNY     77  43  29 SW16G23   30.06S
SOUTH BEND     MOSUNNY   78  42  27 S22       30.02F
WARSAW +       SUNNY     73  45  35 SW9G25    30.05S

$$

INZ006>009-017-018-025>027-031800-
NORTHEAST INDIANA

CITY           SKY/WX    TMP DP  RH WIND       PRES   REMARKS
ANGOLA *+      SUNNY     75  68  78 SW12      30.05F
AUBURN +       SUNNY     75  43  31 S8        30.07F
FORT WAYNE     MOSUNNY   74  47  38 SW17G24   30.08S
HUNTINGTON +   SUNNY     73  45  36 W13G18    30.07F

$$

INZ028-029-035-036-043>045-051>053-031800-
WEST CENTRAL INDIANA

CITY           SKY/WX    TMP DP  RH WIND       PRES   REMARKS
CRAWFORDSVL +  MOSUNNY   73  36  25 SW15G21   30.07F
GREENCASTLE +  MOSUNNY   72  43  35 SW5       30.08F
LAFAYETTE      PTSUNNY   73  45  36 SW12G20   30.04F
TERRE HAUTE    MOSUNNY   75  48  38 S12G22    30.07F

$$

INZ030>032-037>040-046>048-054>057-064-065-031800-
CENTRAL INDIANA

CITY           SKY/WX    TMP DP  RH WIND       PRES   REMARKS
CP ATTERBURY + MOSUNNY   73  48  40 S10G18    30.11S
FISHERS *+     SUNNY     72  54  53 S14       30.09F
FRANKFORT +    MOSUNNY   75  47  36 S13       30.08F
GREENWOOD *+   SUNNY     75  46  35 S15       30.11S
INDIANAPOLIS   PTSUNNY   74  49  41 SW10      30.07F
-EAGLE CREEK   SUNNY     73  45  36 SW10      30.08F
MARION +       MOSUNNY   72  43  35 SW12G17   30.10F
MT COMFORT *+  MOSUNNY   75  28  17 S15G22    30.10F
SHELBYVILLE    MOSUNNY   75  49  39 S15       30.10S
ZIONSVILLE +   FAIR      74  45  34 SW13G20   30.09F

$$

INZ033-034-041-042-049-050-058-059-031800-
EAST CENTRAL INDIANA

CITY           SKY/WX    TMP DP  RH WIND       PRES   REMARKS
MUNCIE         MOSUNNY   72  47  40 SW14      30.10S

$$

INZ060-061-067>069-081>083-085>088-031800-
SOUTHWEST INDIANA

CITY           SKY/WX    TMP DP  RH WIND       PRES   REMARKS
EVANSVILLE     SUNNY     77  49  37 SW10      30.11S
HUNTINGBURG *+ MOSUNNY   75  52  43 SW12      30.12S
WASHINGTON +   MOSUNNY   75  41  29 SW12      30.10S

$$

INZ062-063-066-070>080-084-089>092-031800-
SOUTH CENTRAL AND SOUTHEAST INDIANA

CITY           SKY/WX    TMP DP  RH WIND       PRES   REMARKS
BEDFORD +      SUNNY     75  45  33 S10       30.11F
BLOOMINGTON    SUNNY     75  45  34 SW12G22   30.10S
MADISON *+     MOSUNNY   73  43  33 S10G16    30.15S
NORTH VERNON + MOSUNNY   73  48  40 SW14      30.12F
SEYMOUR +      SUNNY     75  50  41 S9G21     30.11F

$$



USA.gov is the U.S. government's official web portal to all federal, state and local government web resources and services.